Hourly Weather Bolshie Vikorovichi

Today, 20 June, Sunday

Time Temperature Precipitation Wind Pressure Humidity
00:00 +20°C° 0.1 mm 2 mps 751 mmHg 89%
01:00 +19°C° 0.1 mm 2 mps 751 mmHg 91%
02:00 +19°C° 0 mm 2 mps 751 mmHg 94%
03:00 +19°C° 0 mm 2 mps 751 mmHg 94%
04:00 +19°C° 0 mm 2 mps 751 mmHg 95%
05:00 +19°C° 0 mm 2 mps 751 mmHg 96%
06:00 +21°C° 0 mm 3 mps 751 mmHg 89%
07:00 +23°C° 0 mm 4 mps 751 mmHg 83%
08:00 +25°C° 0 mm 5 mps 751 mmHg 77%
09:00 +26°C° 0 mm 4 mps 751 mmHg 71%
10:00 +27°C° 0 mm 4 mps 751 mmHg 65%
11:00 +28°C° 0 mm 4 mps 751 mmHg 60%
12:00 +29°C° 0 mm 4 mps 750 mmHg 56%
13:00 +30°C° 0 mm 4 mps 750 mmHg 51%
14:00 +32°C° 0 mm 4 mps 750 mmHg 47%
15:00 +32°C° 0 mm 4 mps 750 mmHg 49%
16:00 +32°C° 0 mm 4 mps 749 mmHg 51%
17:00 +32°C° 0 mm 4 mps 749 mmHg 53%
18:00 +29°C° 0 mm 4 mps 749 mmHg 60%
19:00 +27°C° 0 mm 4 mps 749 mmHg 66%
20:00 +25°C° 0 mm 3 mps 749 mmHg 73%
21:00 +22°C° 0 mm 3 mps 749 mmHg 78%
22:00 +21°C° 0 mm 3 mps 749 mmHg 84%
23:00 +20°C° 0 mm 3 mps 749 mmHg 89%

Tomorrow, 21 June, Monday

Time Temperature Precipitation Wind Pressure Humidity
00:00 +20°C° 0 mm 3 mps 749 mmHg 91%
01:00 +19°C° 0 mm 2 mps 749 mmHg 93%
02:00 +19°C° 0 mm 2 mps 749 mmHg 95%
03:00 +19°C° 0 mm 2 mps 749 mmHg 95%
04:00 +19°C° 0 mm 2 mps 749 mmHg 95%
05:00 +19°C° 0 mm 3 mps 748 mmHg 95%
06:00 +21°C° 0 mm 3 mps 748 mmHg 87%
07:00 +22°C° 0 mm 3 mps 748 mmHg 79%
08:00 +25°C° 0 mm 4 mps 748 mmHg 71%
09:00 +26°C° 0 mm 4 mps 748 mmHg 65%
10:00 +28°C° 0 mm 4 mps 748 mmHg 60%
11:00 +29°C° 0 mm 4 mps 748 mmHg 55%
12:00 +29°C° 0 mm 4 mps 748 mmHg 55%
13:00 +30°C° 0 mm 3 mps 747 mmHg 56%
14:00 +30°C° 0 mm 3 mps 747 mmHg 57%
15:00 +30°C° 0 mm 3 mps 747 mmHg 58%
16:00 +29°C° 0 mm 3 mps 747 mmHg 59%
17:00 +29°C° 0 mm 3 mps 747 mmHg 60%
18:00 +28°C° 0 mm 2 mps 747 mmHg 65%
19:00 +26°C° 0 mm 2 mps 747 mmHg 71%
20:00 +25°C° 0 mm 1 mps 747 mmHg 76%
21:00 +24°C° 0 mm 1 mps 747 mmHg 80%
22:00 +23°C° 0 mm 1 mps 747 mmHg 83%
23:00 +21°C° 0 mm 2 mps 747 mmHg 86%

Day after tomorrow, 22 June, Tuesday

Time Temperature Precipitation Wind Pressure Humidity
00:00 +21°C° 0 mm 2 mps 747 mmHg 88%
01:00 +20°C° 0 mm 2 mps 747 mmHg 90%
02:00 +20°C° 0 mm 2 mps 747 mmHg 92%
03:00 +20°C° 0 mm 2 mps 747 mmHg 92%
04:00 +20°C° 0 mm 2 mps 747 mmHg 92%
05:00 +20°C° 0 mm 2 mps 747 mmHg 92%
06:00 +23°C° 0 mm 2 mps 748 mmHg 84%
07:00 +25°C° 0 mm 2 mps 748 mmHg 77%
08:00 +27°C° 0 mm 3 mps 748 mmHg 69%
09:00 +28°C° 0 mm 3 mps 748 mmHg 63%
10:00 +29°C° 0 mm 3 mps 748 mmHg 57%
11:00 +31°C° 0 mm 3 mps 748 mmHg 51%
12:00 +33°C° 0 mm 3 mps 748 mmHg 48%
13:00 +34°C° 0 mm 3 mps 748 mmHg 45%
14:00 +34°C° 0 mm 3 mps 748 mmHg 42%
15:00 +34°C° 0 mm 3 mps 748 mmHg 44%
16:00 +34°C° 0 mm 2 mps 747 mmHg 45%
17:00 +34°C° 0 mm 2 mps 747 mmHg 47%
18:00 +31°C° 0 mm 2 mps 747 mmHg 54%
19:00 +29°C° 0 mm 2 mps 747 mmHg 62%
20:00 +27°C° 0 mm 2 mps 747 mmHg 70%
21:00 +26°C° 0 mm 2 mps 748 mmHg 73%
22:00 +25°C° 0 mm 2 mps 748 mmHg 77%
23:00 +24°C° 0 mm 2 mps 748 mmHg 80%

23 June, Wednesday

Time Temperature Precipitation Wind Pressure Humidity
00:00 +24°C° 0 mm 2 mps 748 mmHg 83%
01:00 +23°C° 0 mm 2 mps 748 mmHg 87%
02:00 +21°C° 0 mm 2 mps 748 mmHg 90%
03:00 +21°C° 0 mm 2 mps 749 mmHg 90%
04:00 +21°C° 0 mm 2 mps 749 mmHg 90%
05:00 +21°C° 0 mm 2 mps 749 mmHg 90%
06:00 +23°C° 0 mm 2 mps 749 mmHg 83%
07:00 +25°C° 0 mm 1 mps 749 mmHg 76%
08:00 +27°C° 0 mm 1 mps 750 mmHg 69%
09:00 +28°C° 0 mm 1 mps 750 mmHg 64%
10:00 +30°C° 0 mm 2 mps 750 mmHg 58%
11:00 +31°C° 0 mm 2 mps 750 mmHg 53%
12:00 +32°C° 0 mm 2 mps 750 mmHg 49%
13:00 +34°C° 0 mm 2 mps 750 mmHg 46%
14:00 +35°C° 0 mm 2 mps 749 mmHg 42%
15:00 +35°C° 0 mm 2 mps 749 mmHg 42%
16:00 +35°C° 0 mm 2 mps 749 mmHg 43%
17:00 +35°C° 0 mm 2 mps 749 mmHg 43%
18:00 +32°C° 0 mm 2 mps 749 mmHg 51%
19:00 +30°C° 0 mm 2 mps 749 mmHg 59%
20:00 +28°C° 0 mm 1 mps 749 mmHg 66%
21:00 +27°C° 0 mm 1 mps 749 mmHg 70%
22:00 +26°C° 0 mm 1 mps 749 mmHg 74%
23:00 +25°C° 0 mm 1 mps 750 mmHg 77%

24 June, Thursday

Time Temperature Precipitation Wind Pressure Humidity
00:00 +24°C° 0 mm 1 mps 750 mmHg 80%
01:00 +24°C° 0 mm 1 mps 750 mmHg 83%
02:00 +23°C° 0 mm 1 mps 749 mmHg 86%
03:00 +23°C° 0 mm 1 mps 750 mmHg 87%
04:00 +23°C° 0 mm 2 mps 750 mmHg 88%
05:00 +23°C° 0 mm 2 mps 750 mmHg 89%
06:00 +24°C° 0 mm 2 mps 750 mmHg 83%
07:00 +26°C° 0 mm 2 mps 750 mmHg 78%
08:00 +28°C° 0 mm 2 mps 750 mmHg 72%
09:00 +29°C° 0 mm 2 mps 750 mmHg 66%
10:00 +31°C° 0 mm 2 mps 750 mmHg 60%
11:00 +32°C° 0 mm 2 mps 750 mmHg 54%
12:00 +33°C° 0 mm 1 mps 749 mmHg 50%
13:00 +34°C° 0 mm 1 mps 749 mmHg 46%
14:00 +34°C° 0 mm 1 mps 749 mmHg 43%
15:00 +33°C° 0.3 mm 1 mps 748 mmHg 48%
16:00 +34°C° 0.3 mm 2 mps 748 mmHg 52%
17:00 +32°C° 0.3 mm 2 mps 747 mmHg 57%
18:00 +28°C° 3.4 mm 3 mps 747 mmHg 66%
19:00 +25°C° 3.4 mm 4 mps 748 mmHg 76%
20:00 +21°C° 3.4 mm 5 mps 748 mmHg 85%
21:00 +21°C° 0.2 mm 4 mps 748 mmHg 85%
22:00 +21°C° 0.2 mm 2 mps 748 mmHg 84%
23:00 +22°C° 0.2 mm 1 mps 748 mmHg 84%

25 June, Friday

Time Temperature Precipitation Wind Pressure Humidity
00:00 +22°C° 0.2 mm 1 mps 748 mmHg 85%
01:00 +21°C° 0.2 mm 1 mps 748 mmHg 87%
02:00 +20°C° 0.2 mm 2 mps 747 mmHg 88%
03:00 +20°C° 0.2 mm 2 mps 747 mmHg 89%
04:00 +21°C° 0.2 mm 2 mps 747 mmHg 90%
05:00 +21°C° 0.2 mm 2 mps 747 mmHg 91%
06:00 +23°C° 0 mm 2 mps 747 mmHg 87%
07:00 +25°C° 0 mm 2 mps 746 mmHg 83%
08:00 +26°C° 0 mm 2 mps 746 mmHg 79%
09:00 +28°C° 0.1 mm 2 mps 746 mmHg 73%
10:00 +29°C° 0.1 mm 3 mps 746 mmHg 67%
11:00 +31°C° 0.1 mm 3 mps 746 mmHg 60%
12:00 +31°C° 0.1 mm 3 mps 746 mmHg 57%
13:00 +33°C° 0.1 mm 3 mps 746 mmHg 53%
14:00 +34°C° 0.1 mm 4 mps 746 mmHg 49%
15:00 +34°C° 0 mm 3 mps 746 mmHg 51%
16:00 +34°C° 0 mm 3 mps 745 mmHg 52%
17:00 +33°C° 0 mm 3 mps 745 mmHg 53%
18:00 +30°C° 0.4 mm 3 mps 745 mmHg 62%
19:00 +28°C° 0.4 mm 3 mps 745 mmHg 72%
20:00 +26°C° 0.4 mm 3 mps 745 mmHg 81%
21:00 +25°C° 0.5 mm 3 mps 745 mmHg 85%
22:00 +24°C° 0.5 mm 2 mps 745 mmHg 89%
23:00 +23°C° 0.5 mm 2 mps 745 mmHg 93%
Show more